QPF
0.00 0.00 0.00 0.00 0.00 0.00 0.00 0.00 0.00 0.00 0.01 0.01 0.01 0.01 0.01 0.02 0.05 0.08 0.09 0.07 0.07 0.07 0.04 0.03 0.02 0.01 0.01 0.01 0.01 0.01 0.01 0.02 0.02 0.01 0.01 0.01 0.02 0.02 0.02 0.01 0.02 0.03 0.02 0.02
0.00 0.00 0.00 0.00 0.00 0.00 0.00 0.00 0.00 0.00 0.00 0.01 0.01 0.01 0.01 0.02 0.03 0.07 0.08 0.06 0.05 0.05 0.04 0.03 0.02 0.01 0.01 0.00 0.00 0.00 0.01 0.01 0.01 0.01 0.01 0.01 0.02 0.02 0.03 0.02 0.01 0.03 0.03 0.03
0.00 0.00 0.00 0.00 0.00 0.00 0.00 0.00 0.00 0.00 0.00 0.01 0.02 0.01 0.01 0.01 0.03 0.06 0.07 0.05 0.04 0.04 0.04 0.03 0.02 0.01 0.01 0.00 0.00 0.00 0.01 0.01 0.01 0.01 0.01 0.01 0.01 0.02 0.02 0.02 0.01 0.02 0.03 0.03
0.00 0.00 0.00 0.00 0.00 0.00 0.00 0.00 0.00 0.00 0.00 0.01 0.02 0.01 0.01 0.01 0.02 0.04 0.05 0.05 0.04 0.04 0.04 0.03 0.02 0.01 0.00 0.00 0.01 0.01 0.01 0.00 0.00 0.00 0.00 0.00 0.00 0.01 0.01 0.01 0.01 0.01 0.02 0.02
0.00 0.00 0.00 0.00 0.00 0.00 0.00 0.00 0.00 0.00 0.00 0.00 0.01 0.01 0.01 0.01 0.01 0.02 0.03 0.03 0.03 0.03 0.03 0.03 0.02 0.01 0.01 0.01 0.01 0.01 0.01 0.00 0.00 0.00 0.00 0.00 0.00 0.00 0.00 0.00 0.01 0.01 0.01 0.02
0.00 0.00 0.00 0.00 0.00 0.00 0.00 0.00 0.00 0.00 0.00 0.00 0.01 0.00 0.01 0.01 0.01 0.01 0.01 0.01 0.02 0.02 0.02 0.03 0.02 0.02 0.01 0.01 0.01 0.01 0.01 0.00 0.00 0.00 0.00 0.01 0.00 0.00 0.00 0.01 0.01 0.01 0.01 0.02
0.00 0.00 0.00 0.00 0.00 0.00 0.00 0.01 0.01 0.01 0.01 0.01 0.00 0.00 0.00 0.01 0.01 0.01 0.01 0.01 0.01 0.01 0.01 0.01 0.01 0.01 0.01 0.01 0.01 0.01 0.00 0.00 0.00 0.00 0.00 0.00 0.00 0.00 0.01 0.01 0.01 0.01 0.01 0.02
0.00 0.00 0.00 0.00 0.00 0.00 0.00 0.00 0.00 0.01 0.01 0.00 0.00 0.00 0.01 0.01 0.01 0.01 0.01 0.01 0.00 0.00 0.01 0.01 0.01 0.01 0.01 0.01 0.01 0.01 0.00 0.00 0.00 0.00 0.00 0.00 0.01 0.01 0.01 0.01 0.01 0.01 0.01 0.02
0.00 0.00 0.00 0.00 0.00 0.00 0.00 0.00 0.00 0.00 0.00 0.00 0.00 0.00 0.00 0.00 0.00 0.00 0.00 0.00 0.00 0.00 0.00 0.01 0.02 0.02 0.02 0.01 0.02 0.02 0.01 0.01 0.01 0.00 0.00 0.00 0.00 0.01 0.01 0.01 0.01 0.01 0.01 0.02
0.00 0.00 0.00 0.00 0.00 0.00 0.00 0.00 0.00 0.00 0.00 0.00 0.00 0.00 0.00 0.00 0.00 0.00 0.00 0.00 0.00 0.00 0.01 0.02 0.02 0.02 0.02 0.01 0.02 0.03 0.03 0.02 0.02 0.01 0.00 0.00 0.01 0.01 0.02 0.02 0.02 0.01 0.01 0.02
0.00 0.00 0.00 0.00 0.00 0.00 0.00 0.00 0.00 0.00 0.00 0.00 0.00 0.00 0.00 0.00 0.00 0.00 0.00 0.00 0.00 0.00 0.01 0.02 0.04 0.03 0.01 0.01 0.02 0.02 0.03 0.03 0.03 0.02 0.01 0.00 0.01 0.02 0.02 0.02 0.01 0.02 0.02 0.02
0.00 0.00 0.00 0.00 0.00 0.00 0.00 0.00 0.00 0.00 0.00 0.00 0.00 0.00 0.00 0.00 0.00 0.00 0.00 0.00 0.00 0.00 0.01 0.01 0.02 0.02 0.01 0.01 0.01 0.02 0.03 0.04 0.03 0.03 0.02 0.02 0.01 0.02 0.02 0.01 0.01 0.01 0.02 0.02
0.00 0.00 0.00 0.00 0.00 0.00 0.00 0.00 0.00 0.00 0.00 0.00 0.00 0.00 0.00 0.00 0.00 0.00 0.00 0.00 0.00 0.00 0.01 0.00 0.01 0.01 0.01 0.01 0.01 0.02 0.03 0.03 0.04 0.03 0.03 0.02 0.02 0.02 0.01 0.02 0.01 0.01 0.01 0.01
0.00 0.00 0.00 0.00 0.00 0.00 0.00 0.00 0.00 0.00 0.00 0.00 0.00 0.00 0.00 0.00 0.00 0.00 0.00 0.00 0.00 0.00 0.00 0.00 0.01 0.01 0.01 0.00 0.01 0.02 0.02 0.02 0.02 0.02 0.02 0.02 0.02 0.02 0.02 0.01 0.01 0.01 0.01 0.01
0.00 0.00 0.00 0.00 0.00 0.00 0.00 0.00 0.00 0.00 0.00 0.00 0.00 0.00 0.00 0.00 0.00 0.00 0.00 0.00 0.00 0.00 0.00 0.01 0.01 0.00 0.01 0.01 0.01 0.02 0.02 0.01 0.01 0.02 0.02 0.02 0.02 0.01 0.01 0.01 0.01 0.01 0.01 0.01
0.00 0.00 0.00 0.00 0.00 0.00 0.00 0.00 0.00 0.00 0.00 0.00 0.00 0.00 0.00 0.00 0.00 0.00 0.00 0.00 0.00 0.00 0.00 0.00 0.01 0.01 0.02 0.02 0.02 0.02 0.01 0.01 0.01 0.01 0.01 0.01 0.00 0.01 0.01 0.01 0.01 0.00 0.00 0.00
0.00 0.00 0.00 0.00 0.00 0.00 0.00 0.00 0.00 0.00 0.00 0.00 0.00 0.00 0.00 0.00 0.00 0.00 0.00 0.00 0.00 0.00 0.00 0.00 0.01 0.01 0.02 0.03 0.04 0.04 0.03 0.02 0.02 0.01 0.01 0.01 0.00 0.00 0.01 0.00 0.01 0.01 0.00 0.00
0.00 0.00 0.00 0.00 0.00 0.00 0.00 0.00 0.00 0.00 0.00 0.00 0.00 0.00 0.00 0.00 0.00 0.01 0.01 0.01 0.01 0.01 0.01 0.01 0.02 0.02 0.02 0.04 0.05 0.06 0.05 0.03 0.02 0.01 0.02 0.01 0.01 0.01 0.01 0.01 0.01 0.01 0.02 0.01
0.00 0.00 0.00 0.00 0.00 0.00 0.00 0.00 0.00 0.00 0.00 0.00 0.00 0.00 0.00 0.00 0.01 0.01 0.01 0.01 0.01 0.02 0.03 0.03 0.03 0.03 0.03 0.02 0.03 0.05 0.06 0.05 0.04 0.02 0.02 0.02 0.02 0.02 0.02 0.01 0.01 0.02 0.02 0.03
0.00 0.00 0.00 0.00 0.00 0.00 0.00 0.00 0.00 0.00 0.00 0.00 0.00 0.00 0.00 0.00 0.01 0.01 0.01 0.01 0.01 0.01 0.02 0.02 0.02 0.01 0.02 0.01 0.02 0.03 0.05 0.06 0.06 0.05 0.03 0.02 0.02 0.02 0.03 0.03 0.02 0.03 0.03 0.04
0.00 0.00 0.00 0.00 0.00 0.00 0.00 0.00 0.01 0.01 0.00 0.00 0.00 0.00 0.00 0.00 0.01 0.01 0.01 0.01 0.01 0.01 0.01 0.01 0.01 0.01 0.01 0.02 0.03 0.04 0.05 0.05 0.05 0.06 0.05 0.04 0.04 0.05 0.04 0.04 0.04 0.04 0.04 0.04
0.00 0.00 0.00 0.00 0.00 0.00 0.00 0.00 0.01 0.01 0.01 0.01 0.01 0.01 0.01 0.01 0.01 0.01 0.01 0.01 0.01 0.01 0.01 0.01 0.02 0.01 0.02 0.02 0.02 0.03 0.04 0.05 0.05 0.06 0.07 0.06 0.04 0.05 0.05 0.05 0.05 0.05 0.04 0.04
0.00 0.00 0.00 0.01 0.00 0.00 0.00 0.00 0.01 0.01 0.02 0.02 0.02 0.02 0.02 0.01 0.02 0.02 0.01 0.01 0.01 0.01 0.02 0.02 0.02 0.02 0.02 0.02 0.02 0.02 0.02 0.03 0.02 0.03 0.04 0.06 0.06 0.06 0.07 0.07 0.07 0.05 0.04 0.03
0.00 0.00 0.01 0.01 0.01 0.01 0.01 0.01 0.01 0.01 0.02 0.02 0.03 0.03 0.03 0.02 0.02 0.02 0.01 0.01 0.01 0.01 0.02 0.02 0.02 0.01 0.01 0.01 0.01 0.01 0.02 0.02 0.02 0.02 0.03 0.04 0.06 0.06 0.06 0.06 0.06 0.04 0.04 0.02
0.00 0.01 0.01 0.01 0.01 0.01 0.01 0.02 0.02 0.01 0.02 0.03 0.04 0.04 0.03 0.03 0.02 0.02 0.02 0.01 0.01 0.01 0.02 0.02 0.02 0.01 0.01 0.01 0.01 0.01 0.01 0.01 0.01 0.02 0.02 0.03 0.03 0.04 0.04 0.04 0.05 0.04 0.04 0.03
0.00 0.00 0.00 0.00 0.01 0.01 0.02 0.02 0.03 0.02 0.02 0.03 0.03 0.03 0.03 0.03 0.03 0.03 0.02 0.02 0.01 0.01 0.01 0.02 0.02 0.02 0.02 0.02 0.02 0.03 0.03 0.02 0.02 0.02 0.03 0.03 0.02 0.02 0.02 0.03 0.05 0.05 0.03 0.04
MSLP
1004.42 1005.01 1005.48 1005.85 1006.16 1006.47 1006.83 1007.25 1007.70 1008.13 1008.46 1008.62 1008.55 1008.24 1007.73 1007.09 1006.44 1005.90 1005.55 1005.46 1005.64 1006.05 1006.63 1007.30 1007.97 1008.60 1009.17 1009.70 1010.23 1010.79 1011.43 1012.17 1012.97 1013.82 1014.64 1015.40 1016.04 1016.53 1016.89 1017.14 1017.32 1017.48 1017.65 1017.86
1005.18 1005.64 1005.95 1006.16 1006.33 1006.55 1006.87 1007.31 1007.84 1008.38 1008.85 1009.15 1009.21 1009.01 1008.57 1007.98 1007.34 1006.77 1006.38 1006.24 1006.35 1006.70 1007.20 1007.80 1008.40 1008.96 1009.48 1009.96 1010.45 1010.99 1011.62 1012.36 1013.19 1014.05 1014.90 1015.67 1016.32 1016.81 1017.16 1017.38 1017.53 1017.65 1017.79 1017.96
1005.78 1006.09 1006.24 1006.29 1006.35 1006.50 1006.81 1007.29 1007.91 1008.59 1009.20 1009.64 1009.83 1009.72 1009.36 1008.80 1008.17 1007.60 1007.18 1007.00 1007.07 1007.37 1007.83 1008.38 1008.93 1009.45 1009.92 1010.35 1010.80 1011.30 1011.91 1012.63 1013.44 1014.31 1015.16 1015.94 1016.59 1017.09 1017.42 1017.63 1017.76 1017.86 1017.97 1018.11
1006.19 1006.34 1006.33 1006.26 1006.23 1006.34 1006.67 1007.22 1007.95 1008.75 1009.50 1010.06 1010.35 1010.33 1010.01 1009.48 1008.86 1008.28 1007.86 1007.66 1007.72 1008.01 1008.46 1009.00 1009.54 1010.04 1010.48 1010.88 1011.28 1011.74 1012.30 1012.97 1013.75 1014.58 1015.42 1016.19 1016.84 1017.34 1017.68 1017.89 1018.00 1018.09 1018.17 1018.29
1006.43 1006.42 1006.27 1006.10 1006.02 1006.14 1006.51 1007.14 1007.98 1008.89 1009.74 1010.40 1010.76 1010.78 1010.49 1009.97 1009.36 1008.78 1008.35 1008.17 1008.25 1008.56 1009.04 1009.61 1010.17 1010.68 1011.12 1011.50 1011.87 1012.28 1012.77 1013.38 1014.10 1014.88 1015.68 1016.42 1017.06 1017.55 1017.89 1018.10 1018.22 1018.30 1018.37 1018.47
1006.55 1006.40 1006.15 1005.91 1005.82 1005.96 1006.39 1007.11 1008.03 1009.02 1009.94 1010.64 1011.03 1011.06 1010.77 1010.24 1009.62 1009.05 1008.64 1008.49 1008.62 1008.98 1009.53 1010.16 1010.78 1011.33 1011.79 1012.17 1012.51 1012.87 1013.30 1013.83 1014.47 1015.18 1015.92 1016.62 1017.23 1017.71 1018.05 1018.27 1018.40 1018.47 1018.55 1018.64
1006.64 1006.39 1006.06 1005.79 1005.70 1005.88 1006.37 1007.14 1008.12 1009.15 1010.08 1010.78 1011.15 1011.16 1010.84 1010.29 1009.67 1009.11 1008.74 1008.64 1008.83 1009.27 1009.90 1010.61 1011.31 1011.92 1012.41 1012.80 1013.13 1013.45 1013.82 1014.27 1014.82 1015.45 1016.12 1016.77 1017.34 1017.81 1018.14 1018.37 1018.50 1018.59 1018.66 1018.75
1006.79 1006.45 1006.09 1005.81 1005.74 1005.95 1006.47 1007.27 1008.25 1009.26 1010.15 1010.80 1011.10 1011.06 1010.70 1010.14 1009.52 1008.99 1008.67 1008.64 1008.91 1009.45 1010.17 1010.96 1011.73 1012.41 1012.95 1013.36 1013.68 1013.96 1014.28 1014.66 1015.13 1015.68 1016.28 1016.86 1017.40 1017.84 1018.17 1018.39 1018.54 1018.63 1018.70 1018.79
1007.05 1006.67 1006.28 1006.01 1005.96 1006.18 1006.70 1007.47 1008.39 1009.32 1010.11 1010.66 1010.87 1010.76 1010.36 1009.80 1009.21 1008.73 1008.49 1008.54 1008.90 1009.53 1010.33 1011.20 1012.04 1012.77 1013.34 1013.78 1014.10 1014.36 1014.64 1014.97 1015.37 1015.86 1016.38 1016.92 1017.41 1017.82 1018.14 1018.36 1018.51 1018.60 1018.68 1018.75
1007.41 1007.02 1006.65 1006.39 1006.34 1006.54 1007.01 1007.69 1008.49 1009.28 1009.92 1010.33 1010.44 1010.26 1009.85 1009.30 1008.77 1008.38 1008.23 1008.38 1008.83 1009.54 1010.41 1011.33 1012.21 1012.98 1013.58 1014.03 1014.36 1014.62 1014.87 1015.17 1015.53 1015.97 1016.45 1016.93 1017.39 1017.78 1018.08 1018.29 1018.43 1018.52 1018.59 1018.65
1007.84 1007.47 1007.12 1006.88 1006.81 1006.96 1007.33 1007.86 1008.48 1009.07 1009.53 1009.78 1009.79 1009.55 1009.14 1008.65 1008.22 1007.94 1007.91 1008.17 1008.71 1009.48 1010.39 1011.35 1012.24 1013.02 1013.63 1014.10 1014.44 1014.71 1014.96 1015.25 1015.60 1016.01 1016.46 1016.92 1017.34 1017.71 1017.99 1018.19 1018.32 1018.39 1018.44 1018.49
1008.26 1007.94 1007.63 1007.40 1007.29 1007.35 1007.57 1007.91 1008.30 1008.66 1008.91 1009.00 1008.90 1008.63 1008.25 1007.86 1007.54 1007.41 1007.52 1007.89 1008.51 1009.33 1010.27 1011.22 1012.11 1012.88 1013.50 1013.97 1014.33 1014.62 1014.90 1015.21 1015.57 1015.98 1016.42 1016.86 1017.27 1017.61 1017.88 1018.06 1018.17 1018.23 1018.26 1018.28
1008.61 1008.35 1008.08 1007.85 1007.68 1007.62 1007.66 1007.77 1007.91 1008.03 1008.06 1007.98 1007.79 1007.51 1007.19 1006.90 1006.74 1006.76 1007.01 1007.49 1008.19 1009.04 1009.98 1010.92 1011.78 1012.53 1013.15 1013.63 1014.02 1014.36 1014.68 1015.03 1015.42 1015.85 1016.30 1016.74 1017.14 1017.47 1017.73 1017.89 1017.99 1018.03 1018.04 1018.03
1008.85 1008.65 1008.42 1008.17 1007.93 1007.74 1007.58 1007.45 1007.33 1007.19 1007.01 1006.78 1006.51 1006.22 1005.96 1005.80 1005.78 1005.96 1006.34 1006.92 1007.68 1008.56 1009.48 1010.39 1011.23 1011.96 1012.57 1013.08 1013.51 1013.90 1014.29 1014.70 1015.14 1015.61 1016.08 1016.53 1016.93 1017.26 1017.51 1017.66 1017.75 1017.78 1017.77 1017.75
1008.96 1008.82 1008.61 1008.34 1008.02 1007.68 1007.33 1006.97 1006.60 1006.23 1005.85 1005.48 1005.13 1004.84 1004.64 1004.58 1004.70 1005.00 1005.49 1006.15 1006.94 1007.82 1008.73 1009.61 1010.42 1011.13 1011.76 1012.31 1012.80 1013.26 1013.73 1014.21 1014.72 1015.23 1015.74 1016.21 1016.62 1016.95 1017.20 1017.36 1017.44 1017.47 1017.47 1017.43
1008.99 1008.88 1008.67 1008.36 1007.96 1007.49 1006.96 1006.39 1005.80 1005.22 1004.67 1004.17 1003.75 1003.45 1003.29 1003.31 1003.51 1003.89 1004.45 1005.16 1005.96 1006.83 1007.71 1008.56 1009.35 1010.07 1010.73 1011.33 1011.89 1012.44 1013.00 1013.57 1014.14 1014.71 1015.25 1015.75 1016.18 1016.52 1016.78 1016.96 1017.06 1017.11 1017.11 1017.10
1008.99 1008.88 1008.65 1008.29 1007.81 1007.22 1006.54 1005.80 1005.04 1004.29 1003.59 1002.99 1002.50 1002.17 1002.01 1002.06 1002.29 1002.70 1003.28 1003.98 1004.77 1005.61 1006.46 1007.29 1008.07 1008.82 1009.52 1010.19 1010.84 1011.49 1012.14 1012.79 1013.43 1014.06 1014.64 1015.16 1015.61 1015.98 1016.26 1016.47 1016.61 1016.69 1016.73 1016.74
1009.01 1008.85 1008.58 1008.16 1007.61 1006.93 1006.14 1005.28 1004.40 1003.53 1002.72 1002.02 1001.47 1001.09 1000.89 1000.91 1001.12 1001.50 1002.04 1002.70 1003.44 1004.23 1005.04 1005.86 1006.65 1007.43 1008.19 1008.94 1009.69 1010.44 1011.18 1011.91 1012.62 1013.29 1013.91 1014.47 1014.94 1015.34 1015.66 1015.91 1016.10 1016.23 1016.33 1016.40
1009.07 1008.84 1008.49 1008.01 1007.40 1006.65 1005.81 1004.88 1003.93 1002.99 1002.11 1001.34 1000.71 1000.26 999.99 999.93 1000.06 1000.36 1000.81 1001.38 1002.05 1002.78 1003.56 1004.36 1005.18 1006.01 1006.84 1007.68 1008.52 1009.36 1010.19 1010.99 1011.75 1012.47 1013.12 1013.70 1014.20 1014.64 1015.00 1015.30 1015.55 1015.76 1015.93 1016.06
1009.15 1008.82 1008.39 1007.85 1007.19 1006.41 1005.54 1004.60 1003.63 1002.66 1001.75 1000.92 1000.23 999.68 999.32 999.14 999.15 999.32 999.65 1000.12 1000.70 1001.36 1002.11 1002.91 1003.75 1004.63 1005.54 1006.46 1007.39 1008.31 1009.20 1010.06 1010.87 1011.61 1012.29 1012.89 1013.43 1013.90 1014.31 1014.68 1015.00 1015.28 1015.53 1015.74
1009.20 1008.75 1008.23 1007.63 1006.95 1006.17 1005.32 1004.40 1003.45 1002.49 1001.56 1000.70 999.94 999.30 998.82 998.51 998.37 998.40 998.59 998.94 999.42 1000.03 1000.74 1001.55 1002.42 1003.36 1004.33 1005.33 1006.33 1007.31 1008.26 1009.15 1009.99 1010.76 1011.45 1012.08 1012.64 1013.15 1013.62 1014.05 1014.44 1014.81 1015.14 1015.44
1009.13 1008.57 1007.97 1007.33 1006.64 1005.89 1005.09 1004.22 1003.31 1002.39 1001.46 1000.57 999.74 999.01 998.41 997.96 997.67 997.55 997.62 997.85 998.25 998.81 999.50 1000.32 1001.23 1002.21 1003.24 1004.29 1005.34 1006.37 1007.35 1008.27 1009.12 1009.90 1010.61 1011.26 1011.85 1012.41 1012.93 1013.42 1013.89 1014.34 1014.75 1015.13
1008.86 1008.21 1007.56 1006.91 1006.23 1005.52 1004.78 1003.98 1003.13 1002.24 1001.32 1000.41 999.52 998.70 997.98 997.40 996.97 996.73 996.68 996.83 997.17 997.69 998.38 999.21 1000.15 1001.17 1002.24 1003.33 1004.42 1005.47 1006.47 1007.40 1008.26 1009.05 1009.77 1010.44 1011.07 1011.66 1012.24 1012.79 1013.33 1013.85 1014.34 1014.79
1008.35 1007.65 1006.97 1006.32 1005.68 1005.03 1004.35 1003.62 1002.82 1001.96 1001.05 1000.11 999.16 998.26 997.44 996.75 996.22 995.88 995.75 995.84 996.15 996.65 997.35 998.20 999.16 1000.21 1001.31 1002.41 1003.51 1004.56 1005.56 1006.50 1007.36 1008.16 1008.91 1009.61 1010.28 1010.93 1011.56 1012.17 1012.78 1013.36 1013.91 1014.43
1007.59 1006.87 1006.20 1005.58 1004.99 1004.40 1003.78 1003.10 1002.34 1001.50 1000.59 999.61 998.62 997.65 996.75 995.98 995.38 994.98 994.81 994.87 995.17 995.68 996.39 997.25 998.23 999.29 1000.39 1001.50 1002.58 1003.63 1004.62 1005.56 1006.43 1007.26 1008.04 1008.78 1009.51 1010.21 1010.90 1011.57 1012.23 1012.87 1013.47 1014.04
1006.61 1005.91 1005.28 1004.71 1004.18 1003.64 1003.07 1002.44 1001.70 1000.87 999.93 998.93 997.89 996.87 995.93 995.11 994.48 994.06 993.88 993.95 994.26 994.78 995.50 996.37 997.36 998.40 999.49 1000.57 1001.63 1002.66 1003.65 1004.59 1005.48 1006.34 1007.17 1007.98 1008.77 1009.54 1010.29 1011.03 1011.73 1012.41 1013.05 1013.65
Thickness
5806 5791 5781 5787 5792 5792 5787 5779 5774 5782 5796 5789 5782 5782 5788 5793 5790 5788 5786 5784 5783 5784 5788 5789 5788 5788 5785 5784 5782 5781 5779 5778 5776 5773 5771 5769 5768 5768 5768 5768 5767 5767 5766 5765
5788 5783 5797 5802 5800 5794 5787 5779 5777 5785 5796 5789 5780 5781 5789 5792 5792 5792 5790 5787 5787 5786 5786 5787 5787 5787 5785 5784 5783 5781 5780 5779 5777 5775 5773 5772 5770 5769 5768 5768 5767 5766 5765 5764
5784 5793 5806 5801 5794 5788 5784 5780 5780 5779 5787 5788 5780 5773 5781 5790 5794 5795 5794 5792 5791 5790 5787 5787 5787 5786 5786 5785 5784 5784 5781 5780 5778 5777 5774 5772 5770 5768 5767 5766 5765 5765 5765 5764
5788 5800 5802 5796 5792 5791 5779 5794 5791 5784 5770 5761 5771 5749 5773 5782 5785 5790 5792 5793 5793 5794 5792 5789 5788 5787 5787 5787 5787 5784 5782 5781 5779 5777 5774 5771 5767 5764 5764 5765 5765 5765 5764 5763
5786 5797 5796 5791 5797 5798 5791 5800 5792 5782 5769 5758 5762 5751 5762 5779 5778 5786 5793 5797 5798 5798 5796 5793 5792 5791 5790 5789 5787 5785 5783 5781 5779 5777 5775 5771 5768 5767 5765 5765 5764 5763 5762 5762
5791 5803 5804 5802 5807 5806 5801 5790 5779 5766 5756 5743 5756 5750 5755 5771 5783 5791 5797 5800 5802 5802 5800 5797 5795 5793 5791 5790 5788 5785 5782 5780 5779 5777 5775 5772 5769 5767 5764 5763 5761 5761 5761 5760
5778 5790 5802 5808 5796 5797 5790 5766 5742 5739 5730 5736 5756 5753 5761 5789 5798 5801 5801 5803 5805 5804 5801 5797 5794 5792 5790 5789 5788 5785 5782 5780 5779 5777 5775 5773 5771 5768 5765 5763 5762 5760 5759 5758
5757 5761 5790 5800 5795 5784 5780 5769 5741 5729 5726 5735 5751 5750 5774 5800 5806 5808 5808 5807 5807 5804 5802 5799 5797 5795 5793 5791 5788 5785 5782 5780 5779 5776 5775 5773 5771 5769 5767 5765 5763 5761 5760 5759
5753 5760 5792 5802 5805 5794 5775 5766 5767 5742 5737 5732 5741 5758 5780 5799 5801 5803 5803 5804 5803 5804 5803 5801 5799 5797 5795 5792 5790 5787 5784 5781 5778 5776 5775 5773 5771 5769 5767 5766 5764 5762 5761 5760
5768 5761 5781 5794 5798 5793 5787 5769 5751 5738 5724 5723 5739 5749 5760 5782 5790 5795 5797 5799 5802 5802 5802 5802 5800 5798 5797 5795 5792 5788 5785 5781 5779 5777 5775 5773 5771 5769 5767 5765 5763 5762 5761 5759
5773 5758 5766 5777 5777 5774 5772 5763 5749 5736 5738 5724 5724 5746 5786 5788 5794 5794 5797 5800 5801 5801 5802 5801 5800 5799 5797 5794 5791 5787 5784 5780 5778 5776 5774 5772 5770 5769 5767 5765 5764 5762 5760 5759
5766 5750 5745 5762 5782 5788 5781 5769 5755 5743 5734 5731 5729 5749 5798 5797 5798 5798 5798 5800 5802 5802 5802 5801 5800 5797 5795 5791 5788 5785 5783 5780 5778 5776 5774 5771 5769 5767 5766 5764 5763 5761 5759 5758
5762 5745 5731 5740 5755 5770 5770 5767 5761 5750 5735 5725 5727 5754 5793 5795 5795 5797 5797 5798 5799 5799 5798 5798 5796 5794 5791 5789 5786 5785 5782 5780 5778 5775 5773 5770 5768 5766 5764 5763 5762 5760 5758 5756
5766 5742 5737 5731 5741 5756 5761 5764 5760 5752 5736 5731 5740 5761 5780 5786 5789 5792 5793 5795 5795 5795 5794 5793 5791 5790 5788 5787 5785 5784 5781 5779 5776 5773 5771 5768 5766 5765 5763 5762 5760 5758 5756 5754
5758 5740 5745 5749 5758 5761 5761 5763 5762 5758 5752 5747 5757 5763 5779 5785 5789 5791 5791 5791 5790 5790 5789 5789 5787 5785 5784 5783 5782 5782 5779 5777 5774 5770 5768 5766 5765 5763 5760 5758 5757 5756 5754 5752
5743 5737 5739 5743 5752 5755 5755 5760 5761 5760 5759 5759 5764 5768 5784 5787 5787 5786 5786 5787 5785 5786 5787 5786 5785 5782 5780 5780 5778 5777 5775 5774 5771 5767 5765 5763 5762 5760 5757 5755 5753 5751 5750 5748
5728 5728 5722 5722 5737 5746 5738 5754 5756 5758 5763 5761 5759 5772 5779 5779 5780 5781 5783 5783 5783 5784 5784 5783 5782 5780 5779 5778 5776 5774 5773 5771 5767 5764 5761 5759 5757 5755 5753 5751 5749 5747 5746 5744
5723 5715 5706 5708 5724 5715 5738 5761 5762 5759 5761 5765 5768 5774 5776 5778 5779 5780 5780 5779 5779 5780 5780 5781 5780 5778 5776 5774 5772 5770 5769 5765 5762 5759 5757 5755 5753 5750 5748 5746 5744 5743 5742 5740
5722 5713 5699 5694 5701 5714 5738 5754 5756 5752 5753 5764 5764 5768 5770 5773 5772 5770 5776 5777 5777 5777 5778 5777 5777 5776 5773 5769 5766 5764 5761 5759 5756 5753 5751 5750 5747 5745 5743 5741 5740 5738 5737 5735
5710 5709 5698 5690 5696 5698 5728 5754 5761 5755 5744 5763 5762 5762 5763 5764 5752 5758 5770 5771 5771 5772 5772 5771 5770 5769 5766 5764 5761 5757 5754 5752 5750 5748 5746 5744 5742 5740 5738 5736 5735 5733 5731 5730
5695 5692 5689 5687 5692 5705 5735 5749 5753 5729 5738 5759 5759 5758 5757 5756 5758 5762 5765 5764 5765 5765 5765 5764 5762 5760 5759 5757 5754 5750 5748 5746 5746 5744 5742 5738 5736 5735 5733 5731 5729 5728 5726 5724
5687 5682 5680 5679 5685 5699 5735 5738 5733 5737 5750 5753 5753 5754 5752 5753 5755 5756 5756 5756 5756 5755 5756 5755 5752 5751 5750 5749 5746 5743 5741 5742 5740 5738 5735 5732 5729 5728 5728 5725 5723 5721 5719 5717
5682 5687 5686 5690 5697 5715 5724 5730 5736 5739 5741 5745 5746 5747 5746 5745 5745 5747 5747 5747 5747 5747 5746 5746 5744 5742 5741 5741 5739 5736 5736 5735 5733 5731 5729 5726 5724 5721 5720 5718 5715 5713 5712 5710
5681 5684 5683 5687 5700 5710 5717 5724 5730 5733 5735 5739 5740 5741 5740 5738 5738 5738 5738 5737 5737 5737 5736 5736 5735 5733 5732 5732 5732 5731 5729 5728 5726 5724 5721 5719 5715 5714 5713 5712 5710 5707 5705 5704
5676 5677 5676 5681 5694 5703 5712 5716 5720 5724 5728 5729 5731 5732 5731 5731 5729 5729 5727 5727 5728 5728 5728 5728 5726 5725 5724 5724 5723 5723 5721 5719 5716 5714 5713 5711 5709 5708 5707 5705 5703 5702 5702 5700
5669 5672 5673 5678 5690 5691 5699 5709 5714 5714 5716 5718 5720 5720 5721 5721 5721 5721 5719 5719 5719 5719 5719 5718 5718 5717 5716 5716 5715 5714 5713 5711 5708 5705 5704 5703 5702 5700 5699 5697 5696 5696 5695 5694